| time (UTC) | temp F | wind direction | speed MPH | gust MPH | rain 1hr in | rain 24hr in | rain mn in | humidity % | barometer mb |
| 20260507055416 | 46 | 50 | 1.0 | 5.0 | 0.00 | 0.02 | 0.02 | 99 | 1003.8 |
| 20260507053913 | 46 | 127 | 0.0 | 1.0 | 0.00 | 0.02 | 0.02 | 99 | 1003.8 |
| 20260507052412 | 46 | 118 | 1.0 | 2.0 | 0.00 | 0.02 | 0.02 | 99 | 1003.4 |
| 20260507050909 | 46 | 164 | 0.0 | 0.0 | 0.07 | 0.02 | 0.02 | 99 | 1003.9 |
| 20260507045404 | 47 | 120 | 1.0 | 2.0 | 0.00 | 0.01 | 0.01 | 99 | 1003.9 |
| 20260507043900 | 47 | 325 | 7.0 | 14.0 | 0.00 | 0.01 | 0.01 | 99 | 1003.6 |
| 20260507042356 | 48 | 279 | 9.0 | 10.0 | 0.05 | 0.01 | 0.01 | 96 | 1004.2 |
| 20260507040852 | 48 | 304 | 5.0 | 8.0 | 0.00 | 0.00 | 0.00 | 97 | 1004.1 |
| 20260507035350 | 49 | 300 | 7.0 | 10.0 | 0.07 | 0.71 | 0.71 | 97 | 1004.1 |
| 20260507033848 | 48 | 277 | 4.0 | 11.0 | 0.00 | 0.70 | 0.70 | 99 | 1003.9 |
| 20260507032344 | 49 | 285 | 11.0 | 11.0 | 0.07 | 0.70 | 0.70 | 99 | 1003.6 |
| 20260507030840 | 49 | 130 | 1.0 | 5.0 | 0.05 | 0.69 | 0.69 | 99 | 1003.5 |
| 20260507025337 | 50 | 91 | 1.0 | 3.0 | 0.07 | 0.68 | 0.68 | 99 | 1003.4 |
| 20260507023834 | 51 | 166 | 0.0 | 0.0 | 0.00 | 0.67 | 0.67 | 99 | 1003.3 |
| 20260507022330 | 51 | 326 | 3.0 | 6.0 | 0.00 | 0.66 | 0.66 | 99 | 1003.1 |
| 20260507020825 | 52 | 197 | 0.0 | 1.0 | 0.00 | 0.66 | 0.66 | 99 | 1002.9 |
| 20260507015322 | 52 | 138 | 1.0 | 1.0 | 0.00 | 0.66 | 0.66 | 99 | 1002.8 |
| 20260507013818 | 53 | 181 | 1.0 | 5.0 | 0.00 | 0.66 | 0.66 | 99 | 1003.0 |
| 20260507012314 | 53 | 135 | 1.0 | 1.0 | 0.00 | 0.66 | 0.66 | 99 | 1002.8 |
| 20260507010814 | 53 | 151 | 1.0 | 2.0 | 0.00 | 0.65 | 0.65 | 99 | 1003.0 |
| 20260507005309 | 54 | 186 | 0.0 | 2.0 | 0.12 | 0.64 | 0.64 | 99 | 1002.8 |
| 20260507003806 | 55 | 238 | 5.0 | 8.0 | 0.66 | 0.59 | 0.59 | 99 | 1002.7 |
| 20260507002306 | 56 | 235 | 4.0 | 6.0 | 0.19 | 0.47 | 0.47 | 99 | 1002.1 |
| 20260507000802 | 56 | 186 | 0.0 | 2.0 | 0.05 | 0.43 | 0.43 | 99 | 1002.0 |
| 20260506235256 | 56 | 176 | 1.0 | 2.0 | 0.05 | 0.41 | 0.41 | 99 | 1002.0 |
| 20260506233754 | 56 | 169 | 4.0 | 5.0 | 0.12 | 0.40 | 0.40 | 99 | 1002.1 |
| 20260506232254 | 56 | 169 | 2.0 | 2.0 | 0.07 | 0.38 | 0.38 | 99 | 1002.0 |
| 20260506230751 | 57 | 166 | 0.0 | 5.0 | 0.00 | 0.37 | 0.37 | 99 | 1002.4 |
| 20260506225248 | 57 | 217 | 1.0 | 2.0 | 0.05 | 0.37 | 0.37 | 99 | 1002.3 |
| 20260506223744 | 58 | 172 | 1.0 | 3.0 | 0.00 | 0.36 | 0.36 | 99 | 1002.8 |
| 20260506222238 | 59 | 166 | 1.0 | 5.0 | 0.00 | 0.36 | 0.36 | 99 | 1002.7 |
| 20260506220737 | 59 | 188 | 2.0 | 8.0 | 0.00 | 0.36 | 0.36 | 99 | 1002.8 |
| 20260506215236 | 59 | 227 | 2.0 | 5.0 | 0.00 | 0.36 | 0.36 | 99 | 1003.1 |
| 20260506213734 | 59 | 246 | 3.0 | 7.0 | 0.07 | 0.36 | 0.36 | 99 | 1002.8 |
| 20260506212230 | 58 | 165 | 2.0 | 7.0 | 0.05 | 0.35 | 0.35 | 99 | 1003.2 |
| 20260506210725 | 58 | 164 | 2.0 | 2.0 | 0.00 | 0.33 | 0.33 | 99 | 1003.2 |
| 20260506205220 | 57 | 158 | 2.0 | 3.0 | 0.00 | 0.32 | 0.32 | 99 | 1003.2 |
| 20260506203718 | 57 | 163 | 1.0 | 5.0 | 0.07 | 0.32 | 0.32 | 99 | 1003.0 |
| 20260506202215 | 57 | 125 | 8.0 | 13.0 | 0.07 | 0.31 | 0.31 | 99 | 1003.1 |
| 20260506200711 | 57 | 244 | 2.0 | 5.0 | 0.05 | 0.30 | 0.30 | 99 | 1003.2 |
| 20260506195207 | 57 | 193 | 2.0 | 2.0 | 0.07 | 0.29 | 0.29 | 99 | 1003.6 |
| 20260506193704 | 57 | 177 | 0.0 | 6.0 | 0.05 | 0.28 | 0.28 | 99 | 1004.0 |
| 20260506192200 | 57 | 172 | 1.0 | 2.0 | 0.05 | 0.26 | 0.26 | 99 | 1003.9 |
| 20260506190656 | 57 | 160 | 1.0 | 2.0 | 0.31 | 0.22 | 0.22 | 99 | 1004.4 |
| 20260506185152 | 57 | 321 | 5.0 | 6.0 | 0.19 | 0.12 | 0.12 | 99 | 1004.5 |
| 20260506183649 | 57 | 217 | 1.0 | 3.0 | 0.12 | 0.09 | 0.09 | 99 | 1004.6 |
| 20260506182145 | 57 | 185 | 1.0 | 1.0 | 0.19 | 0.05 | 0.05 | 99 | 1004.6 |
| 20260506180643 | 58 | 304 | 2.0 | 2.0 | 0.00 | 0.01 | 0.01 | 99 | 1004.8 |
| 20260506175138 | 59 | 155 | 1.0 | 1.0 | 0.07 | 0.01 | 0.01 | 98 | 1004.5 |
| 20260506173637 | 58 | 266 | 4.0 | 5.0 | 0.00 | 0.00 | 0.00 | 96 | 1004.9 |
| 20260506172133 | 58 | 201 | 2.0 | 3.0 | 0.00 | 0.00 | 0.00 | 96 | 1005.0 |
| 20260506170631 | 58 | 280 | 3.0 | 5.0 | 0.00 | 0.00 | 0.00 | 94 | 1005.5 |
| 20260506165127 | 58 | 189 | 1.0 | 2.0 | 0.00 | 0.00 | 0.00 | 93 | 1005.8 |
| 20260506163623 | 58 | 170 | 1.0 | 5.0 | 0.00 | 0.00 | 0.00 | 93 | 1006.0 |
| 20260506162122 | 59 | 172 | 0.0 | 1.0 | 0.00 | 0.00 | 0.00 | 93 | 1006.3 |
| 20260506160619 | 59 | 134 | 1.0 | 5.0 | 0.00 | 0.00 | 0.00 | 90 | 1006.7 |
| 20260506155116 | 59 | 184 | 1.0 | 2.0 | 0.00 | 0.00 | 0.00 | 87 | 1006.9 |
| 20260506152329 | 59 | 174 | 0.0 | 2.0 | 0.00 | 0.00 | 0.00 | 86 | 1006.8 |
| 20260506150827 | 59 | 170 | 1.0 | 2.0 | 0.00 | 0.00 | 0.00 | 87 | 1006.6 |
| 20260506145322 | 58 | 29 | 2.0 | 3.0 | 0.00 | 0.00 | 0.00 | 87 | 1006.7 |
| 20260506143821 | 57 | 272 | 3.0 | 3.0 | 0.00 | 0.00 | 0.00 | 88 | 1006.8 |
| 20260506142319 | 58 | 181 | 1.0 | 3.0 | 0.00 | 0.00 | 0.00 | 89 | 1006.8 |
| 20260506140818 | 57 | 193 | 1.0 | 2.0 | 0.00 | 0.00 | 0.00 | 90 | 1006.9 |
| 20260506135314 | 57 | 56 | 1.0 | 2.0 | 0.00 | 0.00 | 0.00 | 91 | 1007.1 |
| 20260506133810 | 57 | 161 | 0.0 | 0.0 | 0.00 | 0.00 | 0.00 | 91 | 1007.1 |
| 20260506132307 | 57 | 144 | 0.0 | 0.0 | 0.00 | 0.00 | 0.00 | 91 | 1006.9 |
| 20260506130804 | 57 | 158 | 0.0 | 1.0 | 0.00 | 0.00 | 0.00 | 90 | 1006.9 |
| 20260506125305 | 57 | 218 | 1.0 | 5.0 | 0.00 | 0.00 | 0.00 | 91 | 1007.2 |
| 20260506123800 | 57 | 176 | 1.0 | 2.0 | 0.00 | 0.00 | 0.00 | 88 | 1007.6 |
| 20260506122258 | 57 | 196 | 1.0 | 5.0 | 0.00 | 0.00 | 0.00 | 90 | 1007.8 |
| 20260506120756 | 57 | 162 | 0.0 | 1.0 | 0.00 | 0.00 | 0.00 | 90 | 1007.9 |
| 20260506115255 | 57 | 193 | 1.0 | 2.0 | 0.00 | 0.00 | 0.00 | 90 | 1008.0 |
| 20260506113754 | 56 | 174 | 1.0 | 1.0 | 0.00 | 0.00 | 0.00 | 92 | 1007.7 |
| 20260506112251 | 55 | 143 | 0.0 | 0.0 | 0.00 | 0.00 | 0.00 | 99 | 1007.6 |
| 20260506110749 | 54 | 125 | 1.0 | 1.0 | 0.00 | 0.00 | 0.00 | 99 | 1007.7 |
| 20260506105246 | 54 | 230 | 2.0 | 2.0 | 0.00 | 0.00 | 0.00 | 99 | 1007.9 |
| 20260506103744 | 54 | 187 | 0.0 | 1.0 | 0.00 | 0.00 | 0.00 | 99 | 1007.7 |
| 20260506102242 | 53 | 166 | 0.0 | 1.0 | 0.00 | 0.00 | 0.00 | 99 | 1007.9 |
| 20260506100739 | 53 | 167 | 0.0 | 0.0 | 0.00 | 0.00 | 0.00 | 99 | 1007.5 |
| 20260506095237 | 53 | 154 | 0.0 | 0.0 | 0.00 | 0.00 | 0.00 | 99 | 1007.6 |
| 20260506093737 | 53 | 154 | 0.0 | 1.0 | 0.00 | 0.00 | 0.00 | 99 | 1007.8 |
| 20260506092235 | 53 | 170 | 0.0 | 0.0 | 0.00 | 0.00 | 0.00 | 99 | 1007.4 |
| 20260506090733 | 54 | 153 | 0.0 | 0.0 | 0.00 | 0.00 | 0.00 | 98 | 1007.3 |
| 20260506085228 | 55 | 157 | 1.0 | 1.0 | 0.00 | 0.00 | 0.00 | 97 | 1007.4 |
| 20260506083724 | 56 | 147 | 0.0 | 1.0 | 0.00 | 0.00 | 0.00 | 93 | 1007.4 |
| 20260506082220 | 57 | 127 | 1.0 | 1.0 | 0.00 | 0.00 | 0.00 | 92 | 1007.4 |
| 20260506080719 | 57 | 146 | 0.0 | 1.0 | 0.00 | 0.00 | 0.00 | 93 | 1007.7 |
| 20260506072211 | 57 | 152 | 0.0 | 1.0 | 0.00 | 0.00 | 0.00 | 96 | 1007.6 |
| 20260506070709 | 57 | 143 | 1.0 | 1.0 | 0.00 | 0.00 | 0.00 | 97 | 1007.2 |
| 20260506062200 | 59 | 306 | 6.0 | 7.0 | 0.00 | 0.00 | 0.00 | 93 | 1006.2 |
| 20260506060658 | 59 | 165 | 0.0 | 2.0 | 0.00 | 0.00 | 0.00 | 94 | 1006.1 |